Buenos Aires Air Park, Argentina

10:58 AM ART on January 16, 2017 (GMT -0300)
Buenos Aires

Weather History for SABE - December, 2013

Change the Weather History Date:

Wednesday, December 18, 2013

  Actual Average Record
Temperature  
Mean Temperature 81 °F -  
Max Temperature 87 °F 82 °F 91 °F (2005)
Min Temperature 75 °F 68 °F 59 °F (1998)
Cooling Degree Days 16    
Growing Degree Days 31 (Base 50)    
Moisture  
Dew Point 67 °F    
Average Humidity 60    
Maximum Humidity 74    
Minimum Humidity 36    
Precipitation  
Precipitation 0.00 in 0.13 in - ()
Sea Level Pressure  
Sea Level Pressure 29.82 in    
Wind  
Wind Speed 12 mph ()    
Max Wind Speed 23 mph    
Max Gust Speed 25 mph    
Visibility 6.1 miles    
Events Rain , Thunderstorm    
Averages and records for this station are not official NWS values.
T = Trace of Precipitation, MM = Missing Value Source: Averaged Metar Reports

Daily Weather History Graph

Daily Weather History Graph

Search for Another Location

Airport or City:

Trip Planner

Search our weather history database for the weather conditions in past years. The results will help you decide how hot, cold, wet, or windy it might be!

Date:

Astronomy

Dec. 18, 2013 Rise Set
Actual Time 5:36 AM ART 8:04 PM ART
Civil Twilight 5:06 AM ART 8:34 PM ART
Nautical Twilight 4:30 AM ART 9:10 PM ART
Astronomical Twilight 3:50 AM ART 9:50 PM ART
Moon 8:56 PM ART (12/18) 6:42 AM ART (12/18)
Length of Visible Light 15h 27m
Length of Day
14h 28m
Full, 99% of the Moon is Illuminated
Dec 18
Full
Dec 25
Last Quarter
Jan 1
New
Jan 8
First Quarter
Jan 16
Full

Hourly Weather History & Observations

Time (ART) Temp. Heat Index Dew Point Humidity Pressure Visibility Wind Dir Wind Speed Gust Speed Precip Events Conditions
12:00 AM 85 °F - 70 °F 52% 29.77 in 6 mi NE 9.2 mph - -   Partly Cloudy
12:00 AM 86.0 °F 90.4 °F 69.8 °F 58% 29.77 in - NE 9.2 mph - N/A   Clear
1:00 AM 86.0 °F 90.4 °F 69.8 °F 58% 29.74 in - NNE 12.7 mph - N/A   Clear
1:18 AM 86.0 °F 90.4 °F 69.8 °F 58% 29.74 in - WNW 6.9 mph - N/A   Clear
2:00 AM 84.2 °F 86.6 °F 66.2 °F 55% 29.77 in 6.2 mi West 5.8 mph - N/A   Scattered Clouds
3:00 AM 84 °F - 61 °F 36% 29.78 in 6 mi WSW 13.8 mph - -   Partly Cloudy
3:00 AM 84.2 °F 84.4 °F 60.8 °F 45% 29.77 in - SW 13.8 mph 25.3 mph N/A   Clear
4:00 AM 80.6 °F 81.8 °F 62.6 °F 54% 29.74 in - SW 10.4 mph - N/A   Clear
5:00 AM 80.6 °F 81.8 °F 62.6 °F 54% 29.77 in 6.2 mi SSW 11.5 mph - N/A   Scattered Clouds
6:00 AM 78 °F - 63 °F 50% 29.81 in 6 mi South 12.7 mph - -   Scattered Clouds
6:00 AM 78.8 °F - 62.6 °F 57% 29.80 in 6.2 mi South 12.7 mph - N/A   Partly Cloudy
7:00 AM 78.8 °F - 62.6 °F 57% 29.83 in 6.2 mi SSE 10.4 mph 21.9 mph N/A   Mostly Cloudy
8:00 AM 78.8 °F - 64.4 °F 61% 29.83 in - SSE 18.4 mph - N/A   Clear
9:00 AM 81 °F - 66 °F 52% 29.86 in 6 mi ESE 16.1 mph - -   Mostly Cloudy
9:00 AM 80.6 °F 82.7 °F 66.2 °F 61% 29.86 in - ESE 16.1 mph - N/A   Clear
10:00 AM 82.4 °F 85.4 °F 68.0 °F 62% 29.86 in 6.2 mi SE 13.8 mph - N/A   Scattered Clouds
11:00 AM 84.2 °F 89.6 °F 71.6 °F 66% 29.83 in 6.2 mi ESE 10.4 mph - N/A   Scattered Clouds
12:00 PM 85 °F - 72 °F 56% 29.85 in 6 mi ESE 9.2 mph - -   Scattered Clouds
12:00 PM 84.2 °F 89.6 °F 71.6 °F 66% 29.83 in 6.2 mi ESE 9.2 mph - N/A   Scattered Clouds
1:00 PM 86.0 °F 91.8 °F 71.6 °F 62% 29.83 in 6.2 mi ESE 10.4 mph - N/A   Scattered Clouds
2:00 PM 86.0 °F 91.8 °F 71.6 °F 62% 29.83 in 6.2 mi ESE 11.5 mph - N/A   Scattered Clouds
3:00 PM 83 °F - 71 °F 60% 29.84 in 6 mi SE 18.4 mph - - Thunderstorm Thunderstorm
3:00 PM 84.2 °F 89.6 °F 71.6 °F 66% 29.83 in 6.2 mi SE 18.4 mph - N/A Thunderstorm Partly Cloudy
4:00 PM 78.8 °F - 64.4 °F 61% 29.86 in 6.2 mi SSW 9.2 mph - N/A Thunderstorm Partly Cloudy
4:35 PM 78.8 °F - 64.4 °F 61% 29.83 in 6.2 mi South 18.4 mph - N/A Rain , Thunderstorm Light Thunderstorms and Rain
5:00 PM 78.8 °F - 68.0 °F 69% 29.80 in 6.2 mi SSE 21.9 mph - N/A Rain Light Rain
5:23 PM 78.8 °F - 68.0 °F 69% 29.83 in 6.2 mi SSE 18.4 mph - N/A   Mostly Cloudy
6:00 PM 81 °F - 67 °F 54% 29.83 in 6 mi SE 19.6 mph - - Rain Light Rain
6:00 PM 80.6 °F 83.2 °F 68.0 °F 65% 29.83 in 6.2 mi SE 19.6 mph - N/A   Mostly Cloudy
7:00 PM 80.6 °F 83.2 °F 68.0 °F 65% 29.83 in 6.2 mi SE 20.7 mph - N/A   Mostly Cloudy
8:00 PM 77.0 °F - 68.0 °F 74% 29.83 in 6.2 mi SE 23.0 mph - N/A   Mostly Cloudy
9:00 PM 75 °F - 67 °F 69% 29.88 in 6 mi SE 20.7 mph - -   Partly Cloudy
9:00 PM 75.2 °F - 66.2 °F 73% 29.86 in 6.2 mi SE 20.7 mph - N/A   Mostly Cloudy
10:00 PM 75.2 °F - 66.2 °F 73% 29.89 in 6.2 mi SE 23.0 mph - N/A   Mostly Cloudy
11:00 PM 75.2 °F - 66.2 °F 73% 29.92 in 6.2 mi SE 16.1 mph - N/A   Mostly Cloudy